Redmond, OR

3:13 AM PST on December 06, 2019 (GMT -0800)
Roberts Field Airport

Weather History for KRDM - August, 2019

Change the Weather History Date:

Thursday, August 22, 2019

  Actual Average Record
Temperature  
Mean Temperature 65 °F 64 °F  
Max Temperature 79 °F 84 °F 98 °F (1961)
Min Temperature 50 °F 44 °F 31 °F (1960)
Degree Days  
Heating Degree Days 0 3  
Month to date heating degree days 8 47  
Since 1 June heating degree days 190 333  
Since 1 July heating degree days 41 116  
Cooling Degree Days 0 2  
Month to date cooling degree days 109 67  
Year to date cooling degree days 215 193  
Since 1 June cooling degree days 215 188  
Growing Degree Days 15 (Base 50)    
Moisture  
Dew Point 48 °F    
Average Humidity 59    
Maximum Humidity 96    
Minimum Humidity 21    
Precipitation  
Precipitation 0.00 in 0.01 in 0.39 in (1948)
Month to date precipitation T 0.35  
Year to date precipitation 7.46 5.58  
Sea Level Pressure  
Sea Level Pressure 29.99 in    
Wind  
Wind Speed 4 mph (NNW)    
Max Wind Speed 14 mph    
Max Gust Speed 19 mph    
Visibility 10 miles    
Events      
T = Trace of Precipitation, MM = Missing Value Source: NWS Daily Summary

Daily Weather History Graph

Daily Weather History Graph

Search for Another Location

Airport or City:

Astronomy

Aug. 22, 2019 Rise Set
Actual Time 6:15 AM PDT 7:58 PM PDT
Civil Twilight 5:45 AM PDT 8:28 PM PDT
Nautical Twilight 5:07 AM PDT 9:06 PM PDT
Astronomical Twilight 4:27 AM PDT 9:46 PM PDT
Moon 11:35 PM PDT (8/22) 1:11 PM PDT (8/22)
Length of Visible Light 14h 43m
Length of Day
13h 42m
Waning Gibbous, 58% of the Moon is Illuminated
Aug 22
Waning Gibbous
Aug 23
Last Quarter
Aug 30
New
Sep 5
First Quarter
Sep 13
Full

Hourly Weather History & Observations

Time (PDT) Temp. Dew Point Humidity Pressure Visibility Wind Dir Wind Speed Gust Speed Precip Events Conditions
12:56 AM 57.0 °F 54.0 °F 89% 29.97 in 10.0 mi Calm Calm - N/A   Overcast
1:56 AM 57.0 °F 54.0 °F 89% 29.98 in 10.0 mi ESE 3.5 mph - N/A   Overcast
2:56 AM 57.0 °F 54.0 °F 89% 29.98 in 10.0 mi Calm Calm - N/A   Overcast
3:24 AM 55.9 °F 53.1 °F 90% 30.02 in 10.0 mi Calm Calm - N/A   Overcast
3:32 AM 55.9 °F 53.1 °F 90% 30.02 in 10.0 mi Calm Calm - N/A   Overcast
3:56 AM 55.9 °F 52.0 °F 87% 29.99 in 10.0 mi Calm Calm - N/A   Mostly Cloudy
4:56 AM 53.1 °F 50.0 °F 89% 29.99 in 10.0 mi SSE 3.5 mph - N/A   Partly Cloudy
5:56 AM 52.0 °F 48.9 °F 89% 29.99 in 10.0 mi South 5.8 mph - N/A   Clear
6:56 AM 52.0 °F 50.0 °F 93% 30.01 in 10.0 mi South 5.8 mph - N/A   Clear
7:56 AM 55.9 °F 52.0 °F 87% 30.02 in 10.0 mi South 3.5 mph - N/A   Clear
8:52 AM 60.8 °F 53.6 °F 77% 30.06 in 10.0 mi Calm Calm - N/A   Mostly Cloudy
8:56 AM 60.1 °F 53.1 °F 78% 30.02 in 10.0 mi Calm Calm - N/A   Scattered Clouds
9:03 AM 61.0 °F 53.1 °F 75% 30.06 in 10.0 mi Calm Calm - N/A   Mostly Cloudy
9:41 AM 63.0 °F 54.0 °F 72% 30.06 in 10.0 mi Calm Calm - N/A   Scattered Clouds
9:56 AM 64.0 °F 54.0 °F 70% 30.01 in 10.0 mi North 3.5 mph - N/A   Clear
10:56 AM 66.0 °F 52.0 °F 60% 30.01 in 10.0 mi Calm Calm - N/A   Clear
11:56 AM 70.0 °F 48.9 °F 47% 30.00 in 10.0 mi Variable 3.5 mph - N/A   Unknown
1:56 PM 75.0 °F 41.0 °F 29% 29.97 in 10.0 mi Calm Calm - N/A   Clear
2:56 PM 77.0 °F 42.1 °F 29% 29.96 in 10.0 mi NNW 6.9 mph - N/A   Clear
3:56 PM 77.0 °F 46.9 °F 34% 29.94 in 10.0 mi Variable 5.8 mph - N/A   Clear
4:56 PM 78.1 °F 44.1 °F 30% 29.94 in 10.0 mi North 5.8 mph 17.3 mph N/A   Clear
5:56 PM 77.0 °F 37.0 °F 24% 29.94 in 10.0 mi NNW 10.4 mph - N/A   Clear
6:56 PM 75.0 °F 34.0 °F 22% 29.94 in 10.0 mi NNW 9.2 mph - N/A   Clear
7:56 PM 70.0 °F 37.9 °F 31% 29.96 in 10.0 mi North 8.1 mph - N/A   Clear
8:56 PM 66.0 °F 43.0 °F 43% 29.97 in 10.0 mi NNW 6.9 mph - N/A   Clear
9:56 PM 59.0 °F 42.1 °F 53% 29.98 in 10.0 mi North 4.6 mph - N/A   Clear
10:56 PM 53.1 °F 44.1 °F 71% 29.98 in 10.0 mi Calm Calm - N/A   Clear
11:56 PM 55.0 °F 42.1 °F 62% 29.98 in 10.0 mi SSW 4.6 mph - N/A   Clear